Location: Unspecified
(42.3650°N, 71.1030°W)
Time: 08:31:21
(UTC+00:00)

Vanguard 2 - Pass Details

Date: 30 June 2024
Orbit: 552 x 2913 km, 32.9° (Epoch: 13 July)

Event Time Altitude Azimuth Distance (km) Brightness Sun altitude
Exits shadow 07:29:33 17° 206° (SSW) 3,406 10.2 -14.7°
Maximum altitude 07:37:05 38° 149° (SSE) 2,945 10.3 -13.8°
Drops below altitude 10° 07:50:48 10° 90° (E) 5,490 12.5 -12.1°
Sets 07:55:55 0° 84° (E) 6,675 13.1 -11.5°
